Tracking 29892 objects as of 21-Nov-2024
HD Live streaming from Space Station
objects crossing your sky now

STARLINK-6051

Track STARLINK-6051 now!
10-day predictions
STARLINK-6051 is classified as:


NORAD ID: 56463
Int'l Code: 2023-064R
Perigee: 577.4 km
Apogee: 581.0 km
Inclination: 70.0 °
Period: 96.1 minutes
Semi major axis: 6950 km
RCS: Unknown
Launch date: May 10, 2023
Source: United States (US)
Launch site: AIR FORCE WESTERN TEST RANGE (AFWTR)
Your satellite tracking list
Your tracking list is empty




NASA's NSSDC Master Catalog

Two Line Element Set (TLE):
1 56463U 23064R   24325.82701135 -.00000303  00000-0 -17638-4 0  9999
2 56463  70.0022 259.3206 0002533 257.4859 102.6017 14.98330499 84264
Source of the keplerian elements: AFSPC